TimePST,TemperatureF,Dew PointF,Humidity,Sea Level PressureIn,VisibilityMPH,Wind Direction,Wind SpeedMPH,Gust SpeedMPH,PrecipitationIn,Events,Conditions,WindDirDegrees,DateUTC
12:53 AM,48.0,36.0,63,30.25,10.0,Calm,Calm,-,N/A,,Partly Cloudy,0,2013-02-12 08:53:00
1:53 AM,46.0,35.1,66,30.25,10.0,Calm,Calm,-,N/A,,Partly Cloudy,0,2013-02-12 09:53:00
2:53 AM,44.1,34.0,68,30.25,10.0,Calm,Calm,-,N/A,,Clear,0,2013-02-12 10:53:00
3:53 AM,45.0,32.0,60,30.26,10.0,NE,5.8,-,N/A,,Clear,50,2013-02-12 11:53:00
4:53 AM,44.1,32.0,63,30.28,10.0,East,4.6,-,N/A,,Partly Cloudy,100,2013-02-12 12:53:00
5:53 AM,44.6,30.2,57,30.29,10.0,Variable,3.5,-,N/A,,Partly Cloudy,0,2013-02-12 13:53:00
6:53 AM,46.4,28.4,50,30.31,10.0,ENE,4.6,-,N/A,,Scattered Clouds,60,2013-02-12 14:53:00
7:53 AM,48.2,28.4,46,30.33,10.0,Calm,Calm,-,N/A,,Scattered Clouds,0,2013-02-12 15:53:00
8:53 AM,51.8,30.2,44,30.35,10.0,ESE,4.6,-,N/A,,Scattered Clouds,110,2013-02-12 16:53:00
9:53 AM,55.9,37.0,49,30.35,10.0,Calm,Calm,-,N/A,,Scattered Clouds,0,2013-02-12 17:53:00
10:53 AM,59.0,36.0,42,30.35,10.0,Calm,Calm,-,N/A,,Partly Cloudy,0,2013-02-12 18:53:00
11:53 AM,61.0,30.9,32,30.32,10.0,Calm,Calm,-,N/A,,Clear,0,2013-02-12 19:53:00
12:53 PM,61.0,37.9,42,30.29,10.0,West,10.4,-,N/A,,Clear,260,2013-02-12 20:53:00
1:53 PM,60.1,39.0,46,30.27,10.0,West,13.8,-,N/A,,Partly Cloudy,280,2013-02-12 21:53:00
2:53 PM,59.0,37.9,46,30.26,10.0,West,12.7,-,N/A,,Clear,270,2013-02-12 22:53:00
3:53 PM,59.0,28.9,32,30.25,10.0,WSW,8.1,-,N/A,,Partly Cloudy,250,2013-02-12 23:53:00
4:53 PM,57.0,44.1,62,30.25,10.0,WSW,12.7,-,N/A,,Partly Cloudy,250,2013-02-13 00:53:00
5:53 PM,55.0,44.1,67,30.25,10.0,West,9.2,-,N/A,,Clear,260,2013-02-13 01:53:00
6:53 PM,55.0,44.1,67,30.26,10.0,WSW,8.1,-,N/A,,Clear,250,2013-02-13 02:53:00
7:53 PM,55.0,44.1,67,30.27,10.0,WSW,8.1,-,N/A,,Clear,250,2013-02-13 03:53:00
8:53 PM,55.0,44.1,67,30.27,10.0,Calm,Calm,-,N/A,,Clear,0,2013-02-13 04:53:00
9:53 PM,52.0,42.1,69,30.27,10.0,Calm,Calm,-,N/A,,Clear,0,2013-02-13 05:53:00
10:53 PM,53.1,43.0,69,30.27,10.0,ESE,3.5,-,N/A,,Clear,110,2013-02-13 06:53:00
11:53 PM,50.0,42.1,74,30.27,10.0,Calm,Calm,-,N/A,,Clear,0,2013-02-13 07:53:00